UAL2856 KEWR-KDFW

Flight info

Callsign UAL2856
Flight time N/A
Altitude 32000
Route PARKE J6 MRB/N0445F360 J6 HVQ Q68 SOPIE/N0452F380 Q68 LITTR FEWWW SEEVR4
Aircraft A319/M-SDE3FGHIRWY/LB1

Departure

Time N/A
Airport Newark Liberty International Airport (KEWR)

Arrival

Time 2026-05-04 23:59
Airport Dallas Fort Worth International Airport (KDFW)
Time Latitude Longitude Altitude Speed Heading
2026-05-04 23:30 33.84522 -95.02917 37124 ft 362 kts 260°
2026-05-04 23:31 33.83626 -95.05730 36861 ft 359 kts 260°
2026-05-04 23:31 33.82735 -95.08530 36604 ft 358 kts 260°
2026-05-04 23:31 33.81850 -95.11317 36351 ft 356 kts 260°
2026-05-04 23:31 33.80982 -95.14057 36097 ft 353 kts 260°
2026-05-04 23:32 33.80111 -95.16801 35728 ft 350 kts 261°
2026-05-04 23:32 33.79245 -95.19525 35286 ft 348 kts 261°
2026-05-04 23:32 33.78383 -95.22231 34848 ft 346 kts 261°
2026-05-04 23:32 33.77522 -95.24924 34396 ft 344 kts 261°
2026-05-04 23:33 33.76663 -95.27604 33940 ft 343 kts 261°
2026-05-04 23:33 33.75808 -95.30270 33427 ft 341 kts 261°
2026-05-04 23:33 33.74959 -95.32922 32973 ft 338 kts 261°
2026-05-04 23:33 33.74117 -95.35549 32518 ft 335 kts 260°
2026-05-04 23:34 33.73282 -95.38152 32074 ft 333 kts 260°
2026-05-04 23:34 33.72447 -95.40737 31637 ft 331 kts 260°
2026-05-04 23:34 33.71616 -95.43308 31205 ft 329 kts 259°
2026-05-04 23:34 33.70790 -95.45835 30781 ft 330 kts 259°
2026-05-04 23:35 33.69961 -95.48399 30357 ft 329 kts 259°
2026-05-04 23:35 33.69141 -95.50959 29940 ft 328 kts 259°
2026-05-04 23:35 33.68323 -95.53516 29430 ft 328 kts 259°
2026-05-04 23:35 33.67502 -95.56067 28906 ft 328 kts 259°
2026-05-04 23:36 33.66677 -95.58617 28406 ft 328 kts 258°
2026-05-04 23:36 33.65849 -95.61172 27905 ft 329 kts 258°
2026-05-04 23:36 33.65015 -95.63730 27393 ft 330 kts 257°
2026-05-04 23:36 33.64179 -95.66289 26894 ft 330 kts 257°
2026-05-04 23:37 33.63339 -95.68854 26474 ft 328 kts 257°
2026-05-04 23:37 33.62501 -95.71414 25948 ft 330 kts 256°
2026-05-04 23:37 33.61666 -95.73967 25440 ft 331 kts 256°
2026-05-04 23:37 33.60843 -95.76484 25124 ft 326 kts 255°
2026-05-04 23:38 33.60017 -95.79012 24690 ft 325 kts 255°
2026-05-04 23:38 33.59191 -95.81535 24237 ft 325 kts 255°
2026-05-04 23:38 33.58366 -95.84056 23798 ft 324 kts 254°
2026-05-04 23:38 33.57545 -95.86571 23344 ft 324 kts 253°
2026-05-04 23:39 33.56724 -95.89083 22830 ft 323 kts 253°
2026-05-04 23:39 33.55906 -95.91582 22357 ft 321 kts 253°
2026-05-04 23:39 33.55092 -95.94070 21891 ft 319 kts 253°
2026-05-04 23:39 33.54283 -95.96538 21446 ft 317 kts 253°
2026-05-04 23:40 33.53480 -95.98986 20998 ft 314 kts 254°
2026-05-04 23:40 33.52682 -96.01415 20577 ft 312 kts 254°
2026-05-04 23:40 33.51890 -96.03825 20149 ft 310 kts 254°
2026-05-04 23:40 33.51109 -96.06191 19728 ft 308 kts 253°
2026-05-04 23:41 33.50318 -96.08572 19304 ft 307 kts 253°
2026-05-04 23:41 33.49536 -96.10926 18686 ft 303 kts 253°
2026-05-04 23:41 33.48765 -96.13267 18028 ft 301 kts 253°
2026-05-04 23:41 33.47997 -96.15597 17301 ft 300 kts 253°
2026-05-04 23:42 33.47235 -96.17900 16764 ft 296 kts 253°
2026-05-04 23:42 33.46480 -96.20180 16314 ft 295 kts 253°
2026-05-04 23:42 33.45725 -96.22467 15855 ft 295 kts 252°
2026-05-04 23:42 33.44938 -96.24742 15396 ft 297 kts 248°
2026-05-04 23:43 33.43843 -96.26863 14939 ft 303 kts 237°
2026-05-04 23:43 33.42471 -96.28774 14533 ft 303 kts 233°
2026-05-04 23:43 33.41086 -96.30674 14175 ft 301 kts 234°
2026-05-04 23:43 33.39720 -96.32554 13804 ft 299 kts 233°
2026-05-04 23:44 33.38359 -96.34429 13407 ft 298 kts 233°
2026-05-04 23:44 33.37001 -96.36299 12990 ft 297 kts 233°
2026-05-04 23:44 33.35668 -96.38132 12627 ft 294 kts 233°
2026-05-04 23:44 33.34333 -96.39972 12257 ft 291 kts 233°
2026-05-04 23:45 33.33082 -96.41840 12010 ft 283 kts 241°
2026-05-04 23:45 33.32197 -96.43915 11778 ft 279 kts 252°
2026-05-04 23:45 33.31583 -96.46103 11459 ft 276 kts 254°
2026-05-04 23:45 33.30976 -96.48274 11156 ft 274 kts 253°
2026-05-04 23:46 33.30377 -96.50412 10962 ft 267 kts 253°
2026-05-04 23:46 33.29786 -96.52508 10625 ft 266 kts 253°
2026-05-04 23:46 33.29198 -96.54593 10310 ft 264 kts 253°
2026-05-04 23:46 33.28718 -96.56698 10042 ft 261 kts 263°
2026-05-04 23:47 33.28591 -96.58856 9684 ft 261 kts 267°
2026-05-04 23:47 33.28500 -96.61004 9405 ft 257 kts 267°
2026-05-04 23:47 33.28409 -96.63106 9049 ft 256 kts 267°
2026-05-04 23:47 33.28314 -96.65220 8736 ft 254 kts 266°
2026-05-04 23:48 33.28216 -96.67314 8433 ft 251 kts 266°
2026-05-04 23:48 33.28119 -96.69396 8130 ft 250 kts 266°
2026-05-04 23:48 33.28023 -96.71465 7832 ft 249 kts 266°
2026-05-04 23:48 33.27927 -96.73530 7536 ft 248 kts 266°
2026-05-04 23:49 33.27832 -96.75568 7350 ft 242 kts 266°
2026-05-04 23:49 33.27736 -96.77561 7083 ft 239 kts 266°
2026-05-04 23:49 33.27640 -96.79542 6827 ft 237 kts 265°
2026-05-04 23:49 33.27530 -96.81505 6391 ft 240 kts 261°
2026-05-04 23:50 33.26994 -96.83421 6189 ft 249 kts 248°
2026-05-04 23:50 33.26252 -96.85299 6169 ft 250 kts 239°
2026-05-04 23:50 33.25253 -96.86987 5927 ft 247 kts 234°
2026-05-04 23:50 33.24257 -96.88596 5685 ft 242 kts 234°
2026-05-04 23:51 33.23154 -96.90083 5474 ft 237 kts 227°
2026-05-04 23:51 33.22012 -96.91465 5283 ft 231 kts 226°
2026-05-04 23:51 33.20906 -96.92822 5095 ft 225 kts 226°
2026-05-04 23:51 33.19829 -96.94149 4904 ft 220 kts 226°
2026-05-04 23:52 33.18731 -96.95379 4734 ft 214 kts 214°
2026-05-04 23:52 33.17435 -96.96180 4585 ft 206 kts 207°
2026-05-04 23:52 33.16157 -96.96870 4412 ft 197 kts 206°
2026-05-04 23:52 33.14930 -96.97536 4239 ft 192 kts 206°
2026-05-04 23:53 33.13738 -96.98197 4067 ft 185 kts 206°
2026-05-04 23:53 33.12589 -96.98841 3895 ft 181 kts 206°
2026-05-04 23:53 33.11476 -96.99485 3728 ft 178 kts 206°
2026-05-04 23:53 33.10378 -97.00138 3621 ft 176 kts 206°
2026-05-04 23:54 33.09285 -97.00803 3550 ft 179 kts 206°
2026-05-04 23:54 33.08178 -97.01478 3478 ft 179 kts 204°
2026-05-04 23:54 33.07023 -97.02021 3365 ft 177 kts 199°
2026-05-04 23:54 33.05864 -97.02491 3213 ft 175 kts 190°
2026-05-04 23:55 33.04660 -97.02527 3063 ft 172 kts 180°
2026-05-04 23:55 33.03474 -97.02532 2876 ft 169 kts 181°
2026-05-04 23:55 33.01244 -97.02545 2471 ft 154 kts 181°
2026-05-04 23:56 33.00181 -97.02551 2279 ft 152 kts 180°
2026-05-04 23:56 32.99151 -97.02556 2082 ft 145 kts 181°
2026-05-04 23:56 32.98134 -97.02562 1899 ft 143 kts 182°
2026-05-04 23:56 32.97175 -97.02567 1728 ft 132 kts 181°
2026-05-04 23:57 32.96282 -97.02571 1553 ft 123 kts 182°
2026-05-04 23:57 32.95429 -97.02576 1393 ft 122 kts 180°
2026-05-04 23:57 32.94604 -97.02581 1231 ft 119 kts 179°
2026-05-04 23:57 32.93772 -97.02577 1041 ft 119 kts 179°
2026-05-04 23:58 32.92945 -97.02582 881 ft 124 kts 184°
2026-05-04 23:58 32.92098 -97.02586 749 ft 118 kts 179°
2026-05-04 23:58 32.91280 -97.02595 576 ft 114 kts 180°
2026-05-04 23:58 32.90622 -97.02603 575 ft 72 kts 180°
2026-05-04 23:59 32.90235 -97.02604 575 ft 47 kts 180°
2026-05-04 23:59 32.89976 -97.02650 574 ft 28 kts 206°
2026-05-04 23:59 32.89872 -97.02719 568 ft 8 kts 210°
2026-05-04 23:59 32.89808 -97.02762 568 ft 12 kts 210°
2026-05-05 00:00 32.89717 -97.02804 575 ft 16 kts 184°
2026-05-05 00:00 32.89678 -97.02805 571 ft 17 kts 181°
2026-05-05 00:00 32.89443 -97.02802 573 ft 19 kts 180°
2026-05-05 00:00 32.89392 -97.02873 573 ft 12 kts 270°
2026-05-05 00:01 32.89394 -97.02979 576 ft 15 kts 270°
2026-05-05 00:01 32.89394 -97.03070 576 ft 16 kts 270°
2026-05-05 00:01 32.89373 -97.03187 578 ft 13 kts 217°
2026-05-05 00:01 32.89270 -97.03196 576 ft 18 kts 180°
2026-05-05 00:02 32.89180 -97.03228 579 ft 14 kts 242°
2026-05-05 00:02 32.89175 -97.03297 582 ft 4 kts 271°
2026-05-05 00:02 32.89175 -97.03329 584 ft 5 kts 271°
2026-05-05 00:02 32.89180 -97.03412 584 ft 13 kts 276°
2026-05-05 00:03 32.89232 -97.03496 584 ft 15 kts 332°
2026-05-05 00:03 32.89286 -97.03548 585 ft 8 kts 292°
2026-05-05 00:03 32.89264 -97.03596 584 ft 5 kts 230°
2026-05-05 00:03 32.89256 -97.03608 584 ft 0 kts 230°